www.pogodaiklimat.ru

Погода и климат >> Архив погоды >> Македония >> Скопье


АРХИВ ПОГОДЫ в Скопье

Время (UTC), дата Ветер
(напр.,м/с)
 
Видим.   Явления Облачность Т
(С)
Тd
(С)
f
(%)
Тe
(С)
Тes
(С)
Комфортность P
(гПа)
Po
(гПа)
Тmin
(С)
Tmax
(С)
R
(мм)
R24
(мм)
S
(см)
15 10.09 С 3 30 км 8/1 1500 м
[Sc Cs]
+30.7 +9.2 26 +30 +32 жарко 1011.9 985.1
18 10.09 С 5 30 км 9/3 1500 м
[Sc Cs]
+25.9 +13.3 46 +28 +28 жарко 1013.5 986.3 +31.2
21 10.09 СВ 4 30 км 8/3 1500 м
[Sc Ac trans]
+24.9 +12.6 46 +27 +27 жарко 1015.8 988.4
00 11.09 штиль 0 30 км ясно +20.7 +13.4 63 +23 +23 комфорт 1017.3 989.5
03 11.09 СВ 3 20 км 8/4 1500 м
[Sc Ac trans]
+19.6 +13.4 67 +21 +21 комфорт 1017.9 990.0
06 11.09 С 2 20 км 4/4 1500 м
[Sc]
+19.9 +13.2 65 +22 +24 комфорт 1019.2 991.3 +19.2
09 11.09 ЮЗ 2 20 км 6/1 1500 м
[Cu hum Ci fib]
+24.8 +13.8 50 +27 +36 жарко 1019.1 991.6
12 11.09 С 3 20 км 1/1 1500 м
[Cu hum]
+28.8 +8.1 27 +28 +37 жарко 1018.0 990.9
15 11.09 С 2 20 км 1/1 1500 м
[Cu hum]
+29.4 +7.0 24 +28 +30 жарко 1017.0 989.9
18 11.09 штиль 0 20 км 3/0
[Ac trans Ci sp]
+24.9 +8.0 34 +25 +25 комфорт 1018.9 991.4 +29.5
21 11.09 штиль 0 20 км 5/0
[Ac trans Ci fib]
+19.5 +9.1 51 +20 +20 тепло 1021.4 993.3
00 12.09 штиль 0 20 км 5/1 1500 м
[Sc Ac trans]
+16.7 +10.0 65 +17 +17 тепло 1022.3 994.0
03 12.09 штиль 0 20 км 5/0
[Ac trans Ci sp]
+13.9 +9.8 76 +14 +14 по сезону 1023.1 994.5
06 12.09 Ю 1 30 км 3/0
[Ci fib]
+17.0 +11.2 69 +18 +20 тепло 1023.8 995.5 +12.3
09 12.09 СЗ 2 30 км 5/1 1500 м
[Sc Ci fib]
+24.8 +9.9 39 +26 +35 жарко 1023.4 995.8
12 12.09 С 8 30 км 6/1 1500 м
[Sc Ac trans Ci fib]
+28.7 +8.7 29 +28 +30 жарко 1022.1 994.9
15 12.09 С 4 30 км 5/1 1500 м
[Sc Ac trans]
+28.4 +6.1 24 +27 +28 жарко 1021.5 994.2
18 12.09 СЗ 3 30 км 3/0
[Ac trans Ci fib]
+22.6 +6.2 35 +23 +23 комфорт 1024.1 996.3 +29.5
21 12.09 С 1 30 км 5/0
[Ac trans Ci fib]
+19.0 +7.4 47 +21 +21 комфорт 1025.3 997.1
00 13.09 СВ 1 30 км ясно +16.7 +8.4 58 +18 +18 тепло 1025.6 997.2
03 13.09 З 1 30 км 1/0
[Ac trans]
+18.1 +11.5 65 +19 +19 тепло 1025.9 997.6
06 13.09 СВ 2 30 км ясно +19.8 +12.3 62 +22 +24 комфорт 1026.8 998.7 +15.1
09 13.09 С 8 30 км 1/1 1500 м
[Cu hum]
+26.5 +7.7 30 +26 +28 жарко 1025.5 998.0
12 13.09 С 8 30 км 1/1 1500 м
[Cu hum]
+28.3 +5.4 23 +27 +29 жарко 1023.3 996.0
15 13.09 З 8 30 км ясно +28.3 +6.8 26 +28 +28 жарко 1022.5 995.2
18 13.09 С 5 20 км ясно +24.6 +7.3 33 +25 +25 комфорт 1024.5 996.8 +29.3
21 13.09 С 3 20 км ясно +15.8 +6.4 54 +15 +15 прохладно 1026.8 945.0
00 14.09 ЮЗ 1 20 км ясно +17.3 +8.9 58 +18 +18 тепло 1027.0 998.6
03 14.09 В 1 20 км ясно +15.0 +9.0 67 +16 +16 по сезону 1026.8 998.2
06 14.09 С 2 20 км ясно +18.3 +10.5 60 +19 +21 тепло 1027.1 998.8 +11.8
09 14.09 С 2 30 км ясно +25.7 +9.6 36 +26 +37 жарко 1025.3 997.7
12 14.09 СЗ 3 30 км ясно +28.8 +6.5 24 +28 +37 жарко 1023.2 995.9
15 14.09 С 7 30 км ясно +29.5 +6.3 23 +28 +29 жарко 1021.6 994.3
18 14.09 С 6 30 км ясно +24.5 +8.6 36 +25 +25 комфорт 1023.2 995.6 +29.6
21 14.09 СЗ 3 30 км ясно +22.4 -6.6 14 +21 +21 комфорт 1025.4 997.5
00 15.09 С 1 30 км ясно +17.5 +10.4 63 +19 +19 тепло 1026.2 997.9
03 15.09 ЮЗ 1 30 км ясно +15.3 +11.1 76 +16 +16 по сезону 1026.8 998.2
06 15.09 СВ 4 30 км ясно +18.8 +12.3 66 +20 +21 тепло 1026.8 998.6 +14.7
09 15.09 С 2 30 км ясно +24.8 +10.6 41 +26 +37 жарко 1025.3 997.7
12 15.09 З 3 40 км 1/1
[Cu hum]
+28.4 +9.2 30 +28 +37 жарко 1022.7 995.4
15 15.09 СВ 1 50 км ясно +29.5 +4.9 21 +28 +30 жарко 1020.5 993.4
18 15.09 Ю 1 30 км ясно +21.2 +9.6 47 +23 +23 комфорт 1021.4 993.5 +29.7
21 15.09 штиль 0 20 км ясно +15.9 +9.1 64 +16 +16 по сезону 1022.3 993.9
00 16.09 штиль 0 20 км ясно +13.8 +9.3 74 +13 +13 по сезону 1022.5 993.9
03 16.09 штиль 0 20 км ясно +11.4 +8.8 84 +11 +11 прохладно 1022.2 993.3
06 16.09 штиль 0 30 км ясно +16.1 +10.3 68 +16 +18 тепло 1021.6 993.2 +10.7
09 16.09 ЮВ 1 30 км ясно +24.1 +10.7 43 +25 +38 комфорт 1019.6 992.0
12 16.09 ЮЗ 1 30 км ясно +29.4 +10.3 31 +30 +42 жарко 1016.0 989.0
15 16.09 штиль 0 30 км ясно +31.8 +4.2 18 +30 +32 жарко 1013.9 987.1
18 16.09 штиль 0 30 км ясно +23.7 +7.1 34 +24 +24 комфорт 1015.3 987.7 +31.8
21 16.09 штиль 0 30 км ясно +16.6 +7.2 54 +17 +17 по сезону 1017.1 988.9
00 17.09 штиль 0 30 км ясно +13.0 +7.6 70 +13 +13 по сезону 1017.5 988.9
03 17.09 штиль 0 30 км ясно +8.9 +6.9 87 +8 +8 холодно 1017.8 998.9
06 17.09 штиль 0 30 км ясно +15.3 +9.0 66 +15 +17 по сезону 1017.9 989.5 +9.5
09 17.09 штиль 0 50 км ясно +24.1 +9.4 39 +25 +39 комфорт 1016.3 988.8

 

Местоположение метеостанции Скопье (Македония): широта 41.96 долгота 21.63 высота над уровнем моря 239 м.

В архиве по умолчанию представлена погода в Скопье за последнюю неделю. Архивные данные за месяц целиком и за предыдущие месяцы, начиная с января 2011 года, Вы можете получить, выбрав интересующий диапазон дат из раскрывающегося списка и нажав кнопку "Ввод!".


*Определитесь, кто Вы:
робот инопланетянин человек

Внимание! Время в таблицах - всемирное. Для получения местного времени необходимо прибавить поправку, которая равна 1 ч.

Смотрите также архив погоды в соседних городах и на ближайших метеорологических станциях:

Погода в Гуришках (Македония) (19 км)
Погода в Скопье городе (Македония) (20 км)
Погода в Штипе (Македония) (51 км)
Погода в Тетово (Македония) (55 км)
Погода в Крива-Паланке (Македония) (64 км)
Погода в Пожаране (Македония) (64 км)
Погода во Вране (Черногория) (70 км)
Погода в Прилепе (Македония) (70 км)
Погода в Винице (Македония) (73 км)
Погода в Демир-Капия (Македония) (79 км)

Пояснения к столбцам:

Ветер - указаны скорость ветра в м/с - средняя за 10 мин, порывы в срок и между сроками (в фигурных скобках) и направление, откуда дует ветер: С - северный, СВ - северо-восточный, В - восточный, ЮВ - юго-восточный, Ю - южный, ЮЗ - юго-западный, З - западный, СЗ - северо-западный.
Видимость - горизонтальная дальность видимости в метрах или километрах. При видимости от 1 до 10 км при отсутствии осадков обычно наблюдается дымка, при ухудшении видимости до 1 км и менее - туман. В сухую погоду видимость может ухудшаться дымом, пылью или мглою.
Явления - указаны атмосферные явления, наблюдавшиеся в срок или в последний час перед сроком; фигурными скобками обозначены явления, наблюдавшиеся между сроками (за 1-3 часа до срока); квадратными скобками обозначены град или гололедные отложения с указанием их диаметра в мм.
Облачность - указаны через наклонную черту общая и нижняя облачность в баллах и высота нижней границы облаков в метрах; квадратными скобками обозначены формы облаков: Ci - перистые, Cs - перисто-слоистые, Cc - перисто-кучевые, Ac - высококучевые, As - высокослоистые, Sc - слоисто-кучевые, Ns - слоисто-дождевые, Cu - кучевые, Cb - кучево-дождевые. Подробнее классификацию облаков см. в Атласе облаков (PDF).
T - Температура воздуха - температура, измеренная на высоте 2 м над землей.
Td - Температура точки росы - температура, при понижении до которой содержащийся в воздухе водяной пар достигнет насыщения.
f - Относительная влажность воздуха - влажноcть воздуха, измеренная на высоте 2 м над землей.
Te - Эффективная температура - температура, которую ощущает одетый по сезону человек в тени. Характеристика душности погоды. При расчете учитывается влияние влажности воздуха и скорости ветра на теплоощущения человека.
Tes - Эффективная температура на солнце - температура, которую ощущает человек, с поправкой на солнечный нагрев. Характеристика знойности погоды. Зависит от высоты солнца над горизонтом, облачности и скорости ветра. Ночью, в пасмурную погоду, а также при ветре 12 м/с и более поправка равна нулю.
P - Атмосферное давление - приведенное к уровню моря атмосферное давление.
Po - Атмосферное давление - измеренное на уровне метеостанции атмосферное давление.
Tmin - Минимальная температура - минимум температуры воздуха на высоте 2 м над землей.
Tmax - Максимальная температура - максимум температуры воздуха на высоте 2 м над землей.
R - Количество осадков - Количество выпавших осадков за период времени, мм. При наведении курсора мыши на число - период времени, за который выпало указанное количество осадков.
R24 - Количество осадков - Количество выпавших осадков за 24 часа, мм.
S - Снежный покров - Высота снежного покрова, см. При наведении курсора мыши на число - состояние снежного покрова и степень покрытия местности в баллах.